Volk, WI

9:26 PM CDT on August 18, 2017 (GMT -0500)
Volk

Weather History for KVOK - March, 2013

Change the Weather History Date:

Sunday, March 24, 2013

  Actual Average Record
Temperature  
Mean Temperature 30 °F -  
Max Temperature 32 °F 45 °F 66 °F (2004)
Min Temperature 27 °F 30 °F 8 °F (2014)
Degree Days  
Heating Degree Days 36    
Moisture  
Dew Point 22 °F    
Average Humidity 72    
Maximum Humidity 86    
Minimum Humidity 64    
Precipitation  
Precipitation 0.01 in - - ()
Snow  
Snow 0.00 in - - ()
Snow Depth 7.00 in    
Sea Level Pressure  
Sea Level Pressure 29.96 in    
Wind  
Wind Speed 6 mph (NNE)    
Max Wind Speed 13 mph    
Max Gust Speed 20 mph    
Visibility 9 miles    
Events Snow    
Averages and records for this station are not official NWS values.
T = Trace of Precipitation, MM = Missing Value Source: NWS Daily Summary

Daily Weather History Graph

Daily Weather History Graph

Search for Another Location

Airport or City:

Trip Planner

Search our weather history database for the weather conditions in past years. The results will help you decide how hot, cold, wet, or windy it might be!

Date:

Astronomy

Mar. 24, 2013 Rise Set
Actual Time 6:56 AM CDT 7:18 PM CDT
Civil Twilight 6:27 AM CDT 7:47 PM CDT
Nautical Twilight 5:53 AM CDT 8:21 PM CDT
Astronomical Twilight 5:18 AM CDT 8:56 PM CDT
Moon 4:43 PM CDT (3/24) 5:11 AM CDT (3/24)
Length of Visible Light 13h 19m
Length of Day
12h 22m
Waxing Gibbous, 92% of the Moon is Illuminated
Mar 24
Waxing Gibbous
Mar 27
Full
Apr 2
Last Quarter
Apr 10
New
Apr 18
First Quarter

Hourly Weather History & Observations

Time (CDT) Temp. Windchill Dew Point Humidity Pressure Visibility Wind Dir Wind Speed Gust Speed Precip Events Conditions
12:55 AM 27.0 °F 21.6 °F 20.7 °F 77% 30.10 in 10.0 mi East 4.6 mph - N/A   Mostly Cloudy
1:55 AM 28.9 °F 25.2 °F 20.3 °F 70% 30.08 in 10.0 mi East 3.5 mph - N/A   Overcast
2:55 AM 28.9 °F 23.9 °F 20.5 °F 71% 30.06 in 10.0 mi East 4.6 mph - N/A   Overcast
3:55 AM 28.6 °F - 20.3 °F 71% 30.06 in 10.0 mi Calm Calm - N/A   Overcast
4:55 AM 28.4 °F - 20.5 °F 72% 30.04 in 10.0 mi Calm Calm - N/A   Overcast
5:55 AM 28.4 °F 23.3 °F 20.3 °F 72% 30.03 in 10.0 mi NNE 4.6 mph - N/A   Overcast
6:55 AM 28.9 °F 23.9 °F 20.1 °F 70% 30.02 in 10.0 mi NE 4.6 mph - N/A   Overcast
7:55 AM 28.4 °F 22.2 °F 21.2 °F 74% 30.02 in 10.0 mi NE 5.8 mph - N/A   Overcast
8:55 AM 30.2 °F 25.4 °F 21.2 °F 69% 30.01 in 10.0 mi Variable 4.6 mph - N/A   Overcast
9:35 AM 30.2 °F 22.6 °F 21.2 °F 69% 29.97 in 10.0 mi NE 8.1 mph - N/A Snow Light Snow
9:55 AM 30.2 °F 21.9 °F 23.0 °F 75% 30.00 in 4.0 mi NE 9.2 mph 17.3 mph N/A Snow Light Snow
10:24 AM 28.4 °F 20.4 °F 23.0 °F 80% 29.96 in 2.5 mi ENE 8.1 mph - N/A Snow Light Snow
10:55 AM 28.4 °F 21.2 °F 24.8 °F 86% 29.99 in 2.5 mi NE 6.9 mph - N/A Snow Light Snow
11:55 AM 30.2 °F 21.3 °F 24.8 °F 80% 29.97 in 2.5 mi NE 10.4 mph 17.3 mph N/A Snow Light Snow
12:14 PM 30.2 °F 20.2 °F 24.8 °F 80% 29.93 in 4.0 mi ENE 12.7 mph - N/A Snow Light Snow
12:40 PM 30.2 °F 21.3 °F 23.0 °F 75% 29.93 in 7.0 mi NE 10.4 mph 18.4 mph N/A Snow Light Snow
12:55 PM 30.2 °F 21.9 °F 23.0 °F 75% 29.96 in 10.0 mi NE 9.2 mph 19.6 mph N/A Snow Light Snow
1:21 PM 32.0 °F 23.0 °F 23.0 °F 69% 29.91 in 10.0 mi NNE 11.5 mph - N/A Snow Light Snow
1:51 PM 32.0 °F 24.2 °F 23.0 °F 69% 29.91 in 10.0 mi NNE 9.2 mph - N/A Snow Light Snow
1:55 PM 32.0 °F 24.8 °F 23.0 °F 69% 29.95 in 10.0 mi NNE 8.1 mph - N/A Snow Light Snow
2:55 PM 32.0 °F 25.6 °F 23.0 °F 69% 29.91 in 4.0 mi NNE 6.9 mph - N/A Snow Light Snow
3:55 PM 32.0 °F 24.2 °F 24.8 °F 75% 29.90 in 4.0 mi North 9.2 mph - N/A Snow Light Snow
4:34 PM 32.0 °F 24.8 °F 21.2 °F 64% 29.85 in 10.0 mi NE 8.1 mph 17.3 mph N/A   Overcast
4:55 PM 32.0 °F 24.8 °F 21.2 °F 64% 29.89 in 10.0 mi NNE 8.1 mph - N/A   Overcast
5:55 PM 32.4 °F 24.0 °F 21.6 °F 64% 29.88 in 10.0 mi North 10.4 mph - N/A   Overcast
6:55 PM 32.4 °F 25.3 °F 21.6 °F 64% 29.90 in 10.0 mi North 8.1 mph - N/A   Overcast
7:55 PM 32.2 °F 25.0 °F 22.3 °F 67% 29.91 in 10.0 mi North 8.1 mph - N/A   Overcast
8:55 PM 31.8 °F 24.6 °F 21.7 °F 66% 29.93 in 10.0 mi North 8.1 mph - N/A   Overcast
9:55 PM 31.8 °F 26.2 °F 22.1 °F 67% 29.93 in 10.0 mi North 5.8 mph - N/A   Overcast
10:50 PM 32.0 °F 23.6 °F 21.2 °F 64% 29.93 in 10.0 mi North 10.4 mph - N/A   Overcast
10:55 PM 31.5 °F 24.2 °F 21.9 °F 68% 29.93 in 10.0 mi North 8.1 mph - 0.00 in   Overcast
11:10 PM 32.0 °F 26.4 °F 23.0 °F 69% 29.93 in 10.0 mi North 5.8 mph - N/A   Overcast
11:15 PM 32.0 °F 26.4 °F 23.0 °F 69% 29.93 in 10.0 mi North 5.8 mph - N/A   Overcast
11:36 PM 30.2 °F 22.6 °F 23.0 °F 75% 29.93 in 10.0 mi North 8.1 mph - N/A   Overcast
11:39 PM 30.2 °F 24.3 °F 23.0 °F 75% 29.93 in 10.0 mi North 5.8 mph - N/A   Overcast
11:41 PM 30.2 °F 23.4 °F 23.0 °F 75% 29.93 in 10.0 mi NNE 6.9 mph - N/A   Overcast
11:44 PM 30.2 °F 23.4 °F 23.0 °F 75% 29.93 in 10.0 mi NNE 6.9 mph - N/A   Overcast
11:45 PM 30.2 °F 24.3 °F 23.0 °F 75% 29.93 in 10.0 mi NNE 5.8 mph - N/A   Overcast
11:55 PM 30.9 °F 21.7 °F 22.8 °F 72% 29.93 in 10.0 mi NNE 11.5 mph 16.1 mph 0.00 in   Overcast